TimeMDT,TemperatureF,Dew PointF,Humidity,Sea Level PressureIn,VisibilityMPH,Wind Direction,Wind SpeedMPH,Gust SpeedMPH,PrecipitationIn,Events,Conditions,WindDirDegrees,DateUTC
12:53 AM,53.1,46.9,80,29.95,10.0,Calm,Calm,-,N/A,,Clear,0,2013-08-07 06:53:00
1:53 AM,59.0,45.0,60,29.93,10.0,East,3.5,-,N/A,,Clear,90,2013-08-07 07:53:00
2:53 AM,54.0,46.9,77,29.96,10.0,Calm,Calm,-,N/A,,Clear,0,2013-08-07 08:53:00
3:53 AM,53.1,46.9,80,30.01,10.0,Calm,Calm,-,N/A,,Clear,0,2013-08-07 09:53:00
4:53 AM,53.1,46.9,80,30.00,10.0,Calm,Calm,-,N/A,,Clear,0,2013-08-07 10:53:00
5:53 AM,52.0,46.0,80,30.01,10.0,East,3.5,-,N/A,,Clear,100,2013-08-07 11:53:00
6:53 AM,48.9,45.0,86,30.01,10.0,Calm,Calm,-,N/A,,Clear,0,2013-08-07 12:53:00
7:53 AM,55.0,48.0,77,30.01,10.0,Calm,Calm,-,N/A,,Clear,0,2013-08-07 13:53:00
8:53 AM,62.1,46.9,58,30.00,10.0,Calm,Calm,-,N/A,,Clear,0,2013-08-07 14:53:00
9:53 AM,64.9,48.9,56,30.00,10.0,West,3.5,-,N/A,,Clear,280,2013-08-07 15:53:00
10:53 AM,69.1,48.0,47,29.99,10.0,Calm,Calm,-,N/A,,Clear,0,2013-08-07 16:53:00
11:53 AM,75.0,44.1,33,29.96,10.0,WNW,4.6,-,N/A,,Clear,290,2013-08-07 17:53:00
12:53 PM,80.1,41.0,25,29.94,10.0,Variable,5.8,-,N/A,,Clear,0,2013-08-07 18:53:00
1:53 PM,82.0,32.0,16,29.89,10.0,Variable,4.6,-,N/A,,Clear,0,2013-08-07 19:53:00
2:53 PM,84.9,34.0,16,29.87,10.0,Variable,4.6,-,N/A,,Clear,0,2013-08-07 20:53:00
3:53 PM,73.9,30.9,21,29.93,10.0,NNW,17.3,51.8,0.00,Rain,Light Rain,330,2013-08-07 21:53:00
4:09 PM,78.8,26.6,15,30.08,10.0,SE,29.9,43.7,0.00,Rain,Light Rain,130,2013-08-07 22:09:00
4:21 PM,84.2,24.8,11,30.07,10.0,SSE,11.5,24.2,0.00,,Mostly Cloudy,160,2013-08-07 22:21:00
4:53 PM,82.0,25.0,12,29.84,10.0,Calm,Calm,-,0.00,,Clear,0,2013-08-07 22:53:00
5:53 PM,82.0,37.0,20,29.84,10.0,SW,13.8,19.6,N/A,,Clear,220,2013-08-07 23:53:00
6:53 PM,80.1,37.0,21,29.84,10.0,SSW,8.1,-,N/A,,Clear,210,2013-08-08 00:53:00
7:53 PM,75.9,39.0,26,29.86,10.0,ESE,4.6,-,N/A,,Clear,120,2013-08-08 01:53:00
8:53 PM,69.1,39.9,35,29.88,10.0,South,3.5,-,N/A,,Clear,180,2013-08-08 02:53:00
9:53 PM,59.0,43.0,55,29.94,10.0,Calm,Calm,-,N/A,,Clear,0,2013-08-08 03:53:00
10:53 PM,60.1,42.1,51,29.94,10.0,Calm,Calm,-,N/A,,Clear,0,2013-08-08 04:53:00
11:53 PM,55.9,42.1,60,29.94,10.0,East,4.6,-,N/A,,Clear,90,2013-08-08 05:53:00